TimeEST,TemperatureF,Dew PointF,Humidity,Sea Level PressureIn,VisibilityMPH,Wind Direction,Wind SpeedMPH,Gust SpeedMPH,PrecipitationIn,Events,Conditions,WindDirDegrees,DateUTC
12:06 AM,32.0,30.2,93,30.56,2.0,Calm,Calm,-,N/A,,Clear,0,2012-11-18 05:06:00
12:41 AM,33.8,30.2,87,30.56,3.0,Calm,Calm,-,N/A,,Clear,0,2012-11-18 05:41:00
12:51 AM,33.1,30.0,89,30.58,4.0,Calm,Calm,-,N/A,,Clear,0,2012-11-18 05:51:00
1:51 AM,37.9,32.0,79,30.57,9.0,SSE,9.2,-,N/A,,Clear,150,2012-11-18 06:51:00
2:51 AM,37.9,30.9,76,30.57,10.0,SSE,8.1,-,N/A,,Clear,160,2012-11-18 07:51:00
3:51 AM,39.0,30.0,70,30.57,10.0,SSE,9.2,-,N/A,,Clear,150,2012-11-18 08:51:00
4:51 AM,39.0,28.9,67,30.58,10.0,SSE,9.2,-,N/A,,Clear,150,2012-11-18 09:51:00
5:51 AM,39.2,28.4,65,30.55,10.0,SSE,11.5,-,N/A,,Clear,150,2012-11-18 10:51:00
6:51 AM,39.9,28.9,65,30.57,10.0,SSE,10.4,-,N/A,,Clear,150,2012-11-18 11:51:00
7:51 AM,39.9,28.9,65,30.58,10.0,SSE,11.5,-,N/A,,Clear,150,2012-11-18 12:51:00
8:51 AM,42.1,30.0,62,30.57,10.0,SSE,13.8,-,N/A,,Clear,150,2012-11-18 13:51:00
9:51 AM,46.0,30.0,54,30.56,10.0,SSE,12.7,-,N/A,,Clear,150,2012-11-18 14:51:00
10:51 AM,50.0,33.1,52,30.56,10.0,SSE,8.1,-,N/A,,Clear,150,2012-11-18 15:51:00
11:51 AM,53.1,30.9,43,30.54,10.0,Variable,3.5,-,N/A,,Clear,0,2012-11-18 16:51:00
12:51 PM,55.4,32.0,41,30.49,10.0,NNE,4.6,-,N/A,,Clear,20,2012-11-18 17:51:00
1:51 PM,52.0,33.1,49,30.49,10.0,North,8.1,-,N/A,,Clear,10,2012-11-18 18:51:00
2:51 PM,51.1,35.1,54,30.48,10.0,NE,12.7,-,N/A,,Clear,40,2012-11-18 19:51:00
3:51 PM,48.9,39.0,69,30.48,10.0,NE,9.2,-,N/A,,Clear,50,2012-11-18 20:51:00
4:51 PM,46.9,37.0,68,30.48,10.0,NE,11.5,-,N/A,,Clear,50,2012-11-18 21:51:00
5:51 PM,42.1,36.0,79,30.49,10.0,Calm,Calm,-,N/A,,Clear,0,2012-11-18 22:51:00
6:51 PM,42.1,36.0,79,30.48,10.0,Calm,Calm,-,N/A,,Clear,0,2012-11-18 23:51:00
7:51 PM,39.0,34.0,82,30.49,9.0,Calm,Calm,-,N/A,,Clear,0,2012-11-19 00:51:00
8:51 PM,36.0,30.9,82,30.48,10.0,Calm,Calm,-,N/A,,Clear,0,2012-11-19 01:51:00
9:51 PM,42.1,30.0,62,30.46,10.0,SSE,9.2,-,N/A,,Clear,160,2012-11-19 02:51:00
10:51 PM,43.0,30.0,60,30.45,10.0,SSE,12.7,-,N/A,,Clear,160,2012-11-19 03:51:00
11:51 PM,43.0,28.9,58,30.45,10.0,SSE,13.8,-,N/A,,Clear,160,2012-11-19 04:51:00